{"data":{"norad_id":19751,"intl_designator":"1989-001C","name":"COSMOS 1989 (ETALON 1)","alt_names":[],"object_type":"PAYLOAD","status":"ACTIVE","operator":null,"country":"CIS","launch_date":"1989-01-10","launch_site_code":"TYMSC","launch_vehicle":null,"mission":null,"orbit_class":"UNKNOWN","rcs_meters":1.2589,"size_class":null,"mass_kg":null,"dimensions":null,"purposes":["science"],"wikipedia_slug":null,"has_3d_model":false,"image_url":null,"decayed_at":null,"tle_current":{"epoch":"2026-05-24T12:44:13.865856Z","epoch_age_seconds":118865,"freshness":"FRESH","line1":"1 19751U 89001C   26144.53071604 -.00000036  00000+0  00000+0 0  9992","line2":"2 19751  64.9327  73.0040 0023322 217.6070 314.3361  2.13155969290862","mean_motion":2.13155969,"eccentricity":0.0023322,"inclination_deg":64.9327,"raan_deg":73.004,"arg_perigee_deg":217.607,"mean_anomaly_deg":314.3361,"bstar":0,"rev_number":29086,"period_min":675.56165879643,"perigee_km":19066.10188549,"apogee_km":19185.061430799,"semimajor_km":25503.718658144,"source":"CELESTRAK","updated_at":"2026-05-25T13:38:24.771580Z"}}}